Location: Bodest
(46.3000°N, 22.5667°E)
Time: 15:11:08
(UTC+00:00)

SL-19 R/B - Pass Details

Date: 06 June 2022
Orbit: 874 x 1208 km, 100.6° (Epoch: 03 July)

Event Time Altitude Azimuth Distance (km) Brightness Sun altitude
Rises 18:55:42 0° 11° (N) 4,067 8.2 -5.9°
Reaches altitude 10° 18:58:28 10° 4° (N) 3,128 7.7 -6.2°
Maximum altitude 19:04:57 38° 300° (WNW) 1,765 6.6 -7.1°
Drops below altitude 10° 19:11:29 10° 236° (SW) 3,139 7.3 -7.9°
Sets 19:14:16 0° 229° (SW) 4,084 7.8 -8.2°
